Skip Page Navigation
NASA JPL Caltech
NASA Logo - Jet Propulsion Laboratory + View the NASA Portal
+ Near-Earth Object (NEO) Program
Search JPL
JPL Home Earth Solar System Stars & Galaxies Technology
JPL Solar System Dynamics
BODIES ORBITS EPHEMERIDES TOOLS PHYSICAL DATA DISCOVERY FAQ SITE MAP
JPL Small-Body Database Browser
Search: [ help ]  
154660 Kavelaars (2004 FX29)
Classification: Inner Main-belt Asteroid          SPK-ID: 2154660
Ephemeris | Orbit Diagram | Orbital Elements | Physical Parameters | Discovery Circumstances ]

[ hide orbit diagram ]
Orbit Diagram
Note: Make sure you have Java enabled on your browser to see the applet. This applet is provided as a 3D orbit visualization tool. The applet was implemented using 2-body methods, and hence should not be used for determining accurate long-term trajectories (over several years or decades) or planetary encounter circumstances. For accurate long-term ephemerides, please instead use our Horizons system.
Orbit Viewer

Additional Notes: the orbits shown in the applet are color coded. The planets are white lines, and the asteroid/comet is a blue line. The bright white line indicates the portion of the orbit that is above the ecliptic plane, and the darker portion is below the ecliptic plane. Likewise for the asteroid/comet orbit, the light blue indicates the portion above the ecliptic plane, and the dark blue the portion below the ecliptic plane.

Orbit Viewer applet originally written and kindly provided by Osamu Ajiki (AstroArts), and further modified by Ron Baalke (JPL).


Orbital Elements at Epoch 2456400.5 (2013-Apr-18.0) TDB
Reference: MPO229760 (heliocentric ecliptic J2000)
 Element Value Uncertainty (1-sigma)   Units 
e 0.1103395 n/a  
a 1.9206685 n/a AU
q 1.7087429 n/a AU
i 22.50850 n/a deg
node 182.48035 n/a deg
peri 252.19278 n/a deg
M 226.32750 n/a deg
tp 2456761.5078128
(2014-Apr-14.00781280)
n/a JED
period 972.2479388
2.66
n/a
n/a
d
yr
n 0.37027592 n/a deg/d
Q 2.1325941 n/a AU
  Orbit Determination Parameters
   # obs. used (total)      81  
   first obs. used      2000-??-??  
   last obs. used      2012-04-19  
   # oppositions      6  
   planetary ephem.      DE403  
   condition code      1  
   fit RMS      0.54  
   data source      MPC:mpu  
   producer      MPCLINUX  

Additional Information
 T_jup = 3.825 

Ephemeris | Orbit Diagram | Orbital Elements | Physical Parameters | Discovery Circumstances ]

Physical Parameter Table
Parameter Symbol Value Units Sigma Reference Notes
absolute magnitude H 17.3 mag n/a MPO229760  

154660 Kavelaars           Discovered 2004 Mar. 29 by D. D. Balam at Mauna Kea.
John J. Kavelaars (b. 1966) is an associate research officer at the Herzberg Institute of Astrophysics of the National Research Council of Canada and a co-discoverer of several dozen irregular satellites of the outer planets.
NOTE: some special characters may not display properly (any characters within {} are an attempt to place the proper accent above a character)
Reference: 20070601/MPCPages.arcLast Updated: 2007-06-06

Alternate Designations
 2004 FX29 = 2000 WS2 
Ephemeris | Orbit Diagram | Orbital Elements | Physical Parameters | Discovery Circumstances ]
ABOUT SSD CREDITS/AWARDS PRIVACY/COPYRIGHT GLOSSARY LINKS
FirstGov 2013-May-24 20:12 UT
(server date/time)  
NASA Home Page
Site Manager:   Donald K. Yeomans
Webmaster  Alan B. Chamberlin